Location: Cheyres
(46.8153°N, 6.7877°E)
Time: 02:24:36
(UTC+00:00)

USA 290 - Pass Details

Date: 11 May 2021
Orbit: 400 x 415 km, 73.6° (Epoch: 12 May)

Event Time Altitude Azimuth Distance (km) Brightness Sun altitude
Rises 20:03:07 0° 330° (NNW) 2,350 7.6 -10.3°
Reaches altitude 10° 20:05:16 10° 321° (NW) 1,480 6.5 -10.5°
Maximum altitude 20:08:16 35° 254° (WSW) 673 3.6 -10.9°
Drops below altitude 10° 20:11:13 10° 186° (S) 1,460 4.6 -11.3°
Enters shadow 20:11:37 - 183° (S) 1,615 4.8 -11.3°
